User: anonymous
Location: Quebec
(46.8000°N, 71.2500°W)
Time: 13:27:39
(UTC-04:00)
Language:

CZ-4B R/B - Orbit

View from above orbital plane
View from above orbital plane
View from above satellite
View from above satellite

Ground track
Ground track

The orbit data is extracted from the following two-line orbital elements,

1 29093U 06015B   14258.84551617  .00006857  00000-0  24697-3 0  3904
2 29093 097.5154 338.6934 0087894 302.8215 176.9264 15.25263342463392
Epoch (UTC): 15 September 2014 20:17:32
Eccentricity: 0.0087894
inclination: 97.5154°
perigee height: 429 km
apogee height: 550 km
right ascension of ascending node: 338.6934°
argument of perigee: 302.8215°
revolutions per day: 15.25263342
mean anomaly at epoch: 176.9264°
orbit number at epoch: 46339

The dashed part of the orbit path shows where the satellite is in the earth's shadow,  

DLR